| time (UTC) | temp F | wind direction | speed knots | gust knots | rain 1hr in | rain 24hr in | rain mn in | humidity % | barometer mb |
| 20260503054945 | 44 | 104 | 3.5 | 4.3 | 0.00 | 0.00 | 0.00 | 85 | 1019.2 |
| 20260503054441 | 43 | 120 | 3.5 | 4.3 | 0.00 | 0.00 | 0.00 | 85 | 1018.8 |
| 20260503053939 | 43 | 95 | 3.5 | 4.3 | 0.00 | 0.00 | 0.00 | 87 | 1019.2 |
| 20260503053437 | 43 | 132 | 3.5 | 4.3 | 0.00 | 0.00 | 0.00 | 87 | 1018.9 |
| 20260503052933 | 44 | 109 | 4.3 | 5.2 | 0.00 | 0.00 | 0.00 | 84 | 1018.9 |
| 20260503052431 | 44 | 129 | 3.5 | 4.3 | 0.00 | 0.00 | 0.00 | 82 | 1019.0 |
| 20260503051927 | 45 | 103 | 3.5 | 4.3 | 0.00 | 0.00 | 0.00 | 85 | 1019.2 |
| 20260503051423 | 45 | 97 | 2.6 | 2.6 | 0.00 | 0.00 | 0.00 | 83 | 1018.7 |
| 20260503050920 | 46 | 93 | 2.6 | 2.6 | 0.00 | 0.00 | 0.00 | 80 | 1019.0 |
| 20260503050416 | 45 | 91 | 2.6 | 2.6 | 0.00 | 0.00 | 0.00 | 82 | 1018.9 |
| 20260503045914 | 46 | 86 | 2.6 | 2.6 | 0.00 | 0.00 | 0.00 | 79 | 1019.2 |
| 20260503045406 | 49 | 106 | 2.6 | 2.6 | 0.00 | 0.00 | 0.00 | 73 | 1018.8 |
| 20260503044903 | 50 | 61 | 2.6 | 2.6 | 0.00 | 0.00 | 0.00 | 71 | 1019.0 |
| 20260503044359 | 51 | 72 | 0.9 | 0.9 | 0.00 | 0.00 | 0.00 | 69 | 1019.0 |
| 20260503043856 | 52 | 79 | 1.7 | 1.7 | 0.00 | 0.00 | 0.00 | 66 | 1018.7 |
| 20260503043353 | 51 | 85 | 0.9 | 0.9 | 0.00 | 0.00 | 0.00 | 64 | 1018.9 |
| 20260503042849 | 53 | 24 | 0.9 | 1.7 | 0.00 | 0.00 | 0.00 | 64 | 1018.8 |
| 20260503042346 | 53 | 27 | 0.9 | 1.7 | 0.00 | 0.00 | 0.00 | 64 | 1018.7 |
| 20260503041842 | 55 | 197 | 2.6 | 2.6 | 0.00 | 0.00 | 0.00 | 57 | 1018.8 |
| 20260503041340 | 56 | 180 | 1.7 | 1.7 | 0.00 | 0.00 | 0.00 | 57 | 1018.6 |
| 20260503040837 | 54 | 141 | 0.0 | 0.9 | 0.00 | 0.00 | 0.00 | 58 | 1018.5 |
| 20260503040335 | 54 | 38 | 1.7 | 1.7 | 0.00 | 0.00 | 0.00 | 66 | 1018.6 |
| 20260503035831 | 55 | 169 | 1.7 | 1.7 | 0.00 | 0.00 | 0.00 | 57 | 1018.7 |
| 20260503035328 | 56 | 164 | 1.7 | 1.7 | 0.00 | 0.00 | 0.00 | 57 | 1018.5 |
| 20260503034825 | 53 | 115 | 0.0 | 0.0 | 0.00 | 0.00 | 0.00 | 62 | 1018.4 |
| 20260503034322 | 55 | 25 | 2.6 | 2.6 | 0.00 | 0.00 | 0.00 | 62 | 1018.4 |
| 20260503033820 | 55 | 143 | 1.7 | 1.7 | 0.00 | 0.00 | 0.00 | 59 | 1018.3 |
| 20260503033317 | 54 | 189 | 0.9 | 1.7 | 0.00 | 0.00 | 0.00 | 62 | 1018.4 |
| 20260503032815 | 55 | 152 | 0.0 | 0.9 | 0.00 | 0.00 | 0.00 | 63 | 1018.0 |
| 20260503032314 | 57 | 152 | 0.9 | 0.9 | 0.00 | 0.00 | 0.00 | 59 | 1018.1 |
| 20260503031810 | 58 | 152 | 1.7 | 1.7 | 0.00 | 0.00 | 0.00 | 55 | 1017.8 |
| 20260503031308 | 57 | 156 | 2.6 | 2.6 | 0.00 | 0.00 | 0.00 | 57 | 1017.5 |
| 20260503030804 | 58 | 155 | 3.5 | 4.3 | 0.00 | 0.00 | 0.00 | 57 | 1017.8 |
| 20260503030301 | 58 | 163 | 2.6 | 2.6 | 0.00 | 0.00 | 0.00 | 56 | 1018.0 |
| 20260503025757 | 59 | 180 | 2.6 | 2.6 | 0.00 | 0.00 | 0.00 | 56 | 1017.8 |
| 20260503025255 | 60 | 175 | 2.6 | 2.6 | 0.00 | 0.00 | 0.00 | 52 | 1017.8 |
| 20260503024752 | 58 | 159 | 2.6 | 4.3 | 0.00 | 0.00 | 0.00 | 55 | 1018.0 |
| 20260503024249 | 60 | 167 | 0.9 | 1.7 | 0.00 | 0.00 | 0.00 | 53 | 1017.7 |
| 20260503023746 | 61 | 157 | 1.7 | 1.7 | 0.00 | 0.00 | 0.00 | 46 | 1017.9 |
| 20260503023242 | 61 | 181 | 1.7 | 1.7 | 0.00 | 0.00 | 0.00 | 48 | 1018.0 |
| 20260503022739 | 62 | 187 | 2.6 | 2.6 | 0.00 | 0.00 | 0.00 | 55 | 1018.1 |
| 20260503022239 | 61 | 33 | 1.7 | 1.7 | 0.00 | 0.00 | 0.00 | 48 | 1018.1 |
| 20260503021736 | 62 | 86 | 1.7 | 2.6 | 0.00 | 0.00 | 0.00 | 53 | 1018.4 |
| 20260503021232 | 65 | 140 | 1.7 | 1.7 | 0.00 | 0.00 | 0.00 | 46 | 1018.3 |
| 20260503020731 | 64 | 346 | 0.0 | 0.0 | 0.00 | 0.00 | 0.00 | 43 | 1018.1 |
| 20260503020228 | 64 | 336 | 1.7 | 1.7 | 0.00 | 0.00 | 0.00 | 43 | 1018.0 |
| 20260503015724 | 65 | 294 | 4.3 | 5.2 | 0.00 | 0.00 | 0.00 | 44 | 1018.1 |
| 20260503015221 | 65 | 299 | 1.7 | 1.7 | 0.00 | 0.00 | 0.00 | 43 | 1018.0 |
| 20260503014717 | 64 | 272 | 3.5 | 4.3 | 0.00 | 0.00 | 0.00 | 44 | 1018.0 |
| 20260503014215 | 64 | 182 | 2.6 | 2.6 | 0.00 | 0.00 | 0.00 | 51 | 1018.1 |
| 20260503013712 | 64 | 266 | 4.3 | 5.2 | 0.00 | 0.00 | 0.00 | 46 | 1017.8 |
| 20260503013210 | 65 | 213 | 0.9 | 1.7 | 0.00 | 0.00 | 0.00 | 52 | 1018.1 |
| 20260503012707 | 65 | 88 | 0.0 | 0.9 | 0.00 | 0.00 | 0.00 | 49 | 1017.9 |
| 20260503012204 | 66 | 336 | 3.5 | 5.2 | 0.00 | 0.00 | 0.00 | 47 | 1018.0 |
| 20260503011700 | 66 | 4 | 2.6 | 2.6 | 0.00 | 0.00 | 0.00 | 46 | 1017.9 |
| 20260503011157 | 66 | 223 | 1.7 | 1.7 | 0.00 | 0.00 | 0.00 | 43 | 1018.0 |
| 20260503010653 | 68 | 295 | 2.6 | 2.6 | 0.00 | 0.00 | 0.00 | 47 | 1017.9 |
| 20260503010151 | 68 | 0 | 4.3 | 4.3 | 0.00 | 0.00 | 0.00 | 39 | 1017.9 |
| 20260503005648 | 69 | 77 | 1.7 | 1.7 | 0.00 | 0.00 | 0.00 | 39 | 1017.7 |
| 20260503005145 | 70 | 89 | 3.5 | 6.1 | 0.00 | 0.00 | 0.00 | 42 | 1017.8 |
| 20260503004641 | 68 | 272 | 2.6 | 4.3 | 0.00 | 0.00 | 0.00 | 40 | 1017.7 |
| 20260503004140 | 69 | 280 | 5.2 | 6.1 | 0.00 | 0.00 | 0.00 | 41 | 1017.5 |
| 20260503003636 | 69 | 246 | 5.2 | 7.0 | 0.00 | 0.00 | 0.00 | 39 | 1017.6 |
| 20260503003133 | 70 | 276 | 7.0 | 7.8 | 0.00 | 0.00 | 0.00 | 40 | 1017.8 |
| 20260503002630 | 71 | 324 | 5.2 | 7.0 | 0.00 | 0.00 | 0.00 | 35 | 1017.5 |
| 20260503002127 | 72 | 291 | 7.0 | 7.0 | 0.00 | 0.00 | 0.00 | 34 | 1017.6 |
| 20260503001623 | 71 | 268 | 2.6 | 2.6 | 0.00 | 0.00 | 0.00 | 37 | 1017.6 |
| 20260503001120 | 71 | 246 | 4.3 | 4.3 | 0.00 | 0.00 | 0.00 | 41 | 1017.1 |
| 20260503000618 | 71 | 222 | 5.2 | 6.1 | 0.00 | 0.00 | 0.00 | 36 | 1017.3 |
| 20260503000115 | 71 | 262 | 2.6 | 2.6 | 0.00 | 0.00 | 0.00 | 40 | 1017.1 |
| 20260502235611 | 71 | 287 | 7.0 | 7.0 | 0.00 | 0.00 | 0.00 | 35 | 1017.5 |
| 20260502235109 | 71 | 222 | 10.4 | 12.2 | 0.00 | 0.00 | 0.00 | 38 | 1017.3 |
| 20260502234605 | 71 | 219 | 5.2 | 6.1 | 0.00 | 0.00 | 0.00 | 37 | 1017.2 |
| 20260502234103 | 71 | 275 | 5.2 | 6.1 | 0.00 | 0.00 | 0.00 | 37 | 1017.5 |
| 20260502233603 | 71 | 278 | 7.8 | 8.7 | 0.00 | 0.00 | 0.00 | 36 | 1017.6 |
| 20260502233100 | 71 | 296 | 7.0 | 7.8 | 0.00 | 0.00 | 0.00 | 40 | 1017.6 |
| 20260502232556 | 70 | 287 | 5.2 | 7.0 | 0.00 | 0.00 | 0.00 | 39 | 1017.6 |
| 20260502232054 | 71 | 292 | 6.1 | 7.0 | 0.00 | 0.00 | 0.00 | 40 | 1017.5 |
| 20260502231550 | 70 | 261 | 6.1 | 7.0 | 0.00 | 0.00 | 0.00 | 40 | 1017.6 |
| 20260502231049 | 71 | 297 | 6.1 | 6.1 | 0.00 | 0.00 | 0.00 | 38 | 1017.5 |
| 20260502230547 | 70 | 281 | 7.0 | 7.8 | 0.00 | 0.00 | 0.00 | 42 | 1017.5 |
| 20260502230045 | 71 | 278 | 7.0 | 7.8 | 0.00 | 0.00 | 0.00 | 38 | 1017.6 |
| 20260502225540 | 71 | 265 | 5.2 | 7.0 | 0.00 | 0.00 | 0.00 | 41 | 1017.6 |
| 20260502225037 | 70 | 234 | 7.0 | 8.7 | 0.00 | 0.00 | 0.00 | 36 | 1017.6 |
| 20260502224533 | 71 | 228 | 2.6 | 4.3 | 0.00 | 0.00 | 0.00 | 33 | 1017.8 |
| 20260502224030 | 71 | 275 | 3.5 | 4.3 | 0.00 | 0.00 | 0.00 | 34 | 1017.8 |
| 20260502223528 | 72 | 1 | 0.9 | 0.9 | 0.00 | 0.00 | 0.00 | 30 | 1017.7 |
| 20260502223027 | 73 | 359 | 1.7 | 1.7 | 0.00 | 0.00 | 0.00 | 31 | 1017.9 |
| 20260502222523 | 73 | 346 | 0.9 | 1.7 | 0.00 | 0.00 | 0.00 | 29 | 1018.0 |
| 20260502222020 | 72 | 210 | 0.9 | 1.7 | 0.00 | 0.00 | 0.00 | 30 | 1017.8 |
| 20260502221515 | 72 | 214 | 2.6 | 2.6 | 0.00 | 0.00 | 0.00 | 32 | 1017.8 |
| 20260502221013 | 72 | 186 | 1.7 | 2.6 | 0.00 | 0.00 | 0.00 | 36 | 1017.7 |
| 20260502220508 | 73 | 285 | 3.5 | 4.3 | 0.00 | 0.00 | 0.00 | 33 | 1017.8 |
| 20260502220005 | 72 | 286 | 1.7 | 1.7 | 0.00 | 0.00 | 0.00 | 33 | 1018.0 |
| 20260502215503 | 72 | 222 | 1.7 | 1.7 | 0.00 | 0.00 | 0.00 | 31 | 1017.9 |
| 20260502214959 | 72 | 296 | 7.0 | 7.8 | 0.00 | 0.00 | 0.00 | 33 | 1018.1 |
| 20260502214456 | 72 | 274 | 3.5 | 4.3 | 0.00 | 0.00 | 0.00 | 35 | 1017.9 |
| 20260502213954 | 73 | 350 | 3.5 | 5.2 | 0.00 | 0.00 | 0.00 | 36 | 1018.0 |
| 20260502213450 | 73 | 10 | 3.5 | 4.3 | 0.00 | 0.00 | 0.00 | 34 | 1018.0 |
| 20260502212949 | 72 | 314 | 0.9 | 1.7 | 0.00 | 0.00 | 0.00 | 32 | 1018.1 |
| 20260502212447 | 72 | 224 | 2.6 | 2.6 | 0.00 | 0.00 | 0.00 | 32 | 1018.3 |
| 20260502211944 | 72 | 257 | 2.6 | 4.3 | 0.00 | 0.00 | 0.00 | 31 | 1018.1 |
| 20260502211439 | 72 | 42 | 2.6 | 4.3 | 0.00 | 0.00 | 0.00 | 35 | 1018.3 |
| 20260502210937 | 72 | 154 | 0.9 | 0.9 | 0.00 | 0.00 | 0.00 | 32 | 1018.3 |
| 20260502210434 | 72 | 260 | 2.6 | 2.6 | 0.00 | 0.00 | 0.00 | 33 | 1018.4 |
| 20260502205931 | 72 | 220 | 0.9 | 0.9 | 0.00 | 0.00 | 0.00 | 31 | 1018.4 |
| 20260502205427 | 71 | 9 | 0.9 | 1.7 | 0.00 | 0.00 | 0.00 | 34 | 1018.5 |
| 20260502204925 | 73 | 324 | 4.3 | 5.2 | 0.00 | 0.00 | 0.00 | 32 | 1018.5 |
| 20260502204421 | 72 | 305 | 3.5 | 5.2 | 0.00 | 0.00 | 0.00 | 32 | 1018.6 |
| 20260502203919 | 73 | 347 | 0.9 | 1.7 | 0.00 | 0.00 | 0.00 | 29 | 1018.5 |
| 20260502203416 | 72 | 38 | 1.7 | 2.6 | 0.00 | 0.00 | 0.00 | 31 | 1018.5 |
| 20260502202912 | 73 | 351 | 4.3 | 6.1 | 0.00 | 0.00 | 0.00 | 31 | 1018.4 |
| 20260502202409 | 75 | 268 | 3.5 | 4.3 | 0.00 | 0.00 | 0.00 | 34 | 1018.6 |
| 20260502201908 | 73 | 81 | 1.7 | 1.7 | 0.00 | 0.00 | 0.00 | 29 | 1018.7 |
| 20260502201403 | 73 | 140 | 0.9 | 1.7 | 0.00 | 0.00 | 0.00 | 30 | 1018.6 |
| 20260502200900 | 72 | 126 | 1.7 | 1.7 | 0.00 | 0.00 | 0.00 | 30 | 1018.5 |
| 20260502200355 | 72 | 146 | 2.6 | 4.3 | 0.00 | 0.00 | 0.00 | 32 | 1018.7 |
| 20260502195854 | 73 | 115 | 2.6 | 2.6 | 0.00 | 0.00 | 0.00 | 32 | 1018.6 |
| 20260502195350 | 73 | 140 | 3.5 | 4.3 | 0.00 | 0.00 | 0.00 | 33 | 1018.6 |
| 20260502194847 | 72 | 69 | 4.3 | 5.2 | 0.00 | 0.00 | 0.00 | 31 | 1018.8 |
| 20260502194344 | 72 | 264 | 3.5 | 4.3 | 0.00 | 0.00 | 0.00 | 40 | 1018.7 |
| 20260502193839 | 71 | 226 | 3.5 | 4.3 | 0.00 | 0.00 | 0.00 | 35 | 1018.7 |
| 20260502193337 | 71 | 302 | 4.3 | 5.2 | 0.00 | 0.00 | 0.00 | 35 | 1019.0 |
| 20260502192832 | 71 | 239 | 2.6 | 2.6 | 0.00 | 0.00 | 0.00 | 38 | 1019.0 |
| 20260502192330 | 71 | 30 | 2.6 | 2.6 | 0.00 | 0.00 | 0.00 | 31 | 1019.0 |
| 20260502191827 | 71 | 30 | 5.2 | 6.1 | 0.00 | 0.00 | 0.00 | 32 | 1019.0 |
| 20260502191325 | 71 | 103 | 0.9 | 0.9 | 0.00 | 0.00 | 0.00 | 30 | 1019.0 |
| 20260502190822 | 71 | 94 | 1.7 | 1.7 | 0.00 | 0.00 | 0.00 | 34 | 1019.2 |
| 20260502190319 | 70 | 79 | 2.6 | 4.3 | 0.00 | 0.00 | 0.00 | 27 | 1019.2 |
| 20260502185814 | 71 | 316 | 4.3 | 5.2 | 0.00 | 0.00 | 0.00 | 33 | 1019.3 |
| 20260502185310 | 69 | 107 | 0.0 | 0.9 | 0.00 | 0.00 | 0.00 | 40 | 1019.5 |
| 20260502184808 | 70 | 297 | 2.6 | 2.6 | 0.00 | 0.00 | 0.00 | 35 | 1019.3 |
| 20260502184303 | 70 | 344 | 0.9 | 0.9 | 0.00 | 0.00 | 0.00 | 35 | 1019.4 |
| 20260502183800 | 68 | 296 | 1.7 | 1.7 | 0.00 | 0.00 | 0.00 | 39 | 1019.3 |
| 20260502183256 | 68 | 329 | 2.6 | 2.6 | 0.00 | 0.00 | 0.00 | 40 | 1019.2 |
| 20260502182751 | 68 | 2 | 2.6 | 2.6 | 0.00 | 0.00 | 0.00 | 38 | 1019.4 |
| 20260502182247 | 67 | 289 | 0.9 | 0.9 | 0.00 | 0.00 | 0.00 | 39 | 1019.5 |
| 20260502181743 | 68 | 251 | 2.6 | 2.6 | 0.00 | 0.00 | 0.00 | 41 | 1019.5 |
| 20260502181243 | 68 | 256 | 0.9 | 0.9 | 0.00 | 0.00 | 0.00 | 40 | 1019.4 |
| 20260502180740 | 67 | 122 | 2.6 | 4.3 | 0.00 | 0.00 | 0.00 | 40 | 1019.6 |
| 20260502180237 | 68 | 294 | 3.5 | 4.3 | 0.00 | 0.00 | 0.00 | 44 | 1019.7 |
| 20260502170202 | 63 | 96 | 0.9 | 1.7 | 0.00 | 0.00 | 0.00 | 48 | 1019.6 |
| 20260502164148 | 60 | 124 | 0.0 | 0.0 | 0.00 | 0.00 | 0.00 | 50 | 1020.2 |
| 20260502163644 | 61 | 250 | 1.7 | 1.7 | 0.00 | 0.00 | 0.00 | 51 | 1019.9 |
| 20260502163141 | 61 | 22 | 0.9 | 0.9 | 0.00 | 0.00 | 0.00 | 46 | 1019.8 |
| 20260502162638 | 61 | 28 | 1.7 | 1.7 | 0.00 | 0.00 | 0.00 | 49 | 1019.9 |
| 20260502162135 | 61 | 35 | 0.9 | 1.7 | 0.00 | 0.00 | 0.00 | 48 | 1020.1 |
| 20260502161632 | 61 | 30 | 1.7 | 1.7 | 0.00 | 0.00 | 0.00 | 48 | 1019.9 |
| 20260502161129 | 61 | 7 | 1.7 | 1.7 | 0.00 | 0.00 | 0.00 | 48 | 1020.2 |
| 20260502160626 | 60 | 6 | 0.9 | 1.7 | 0.00 | 0.00 | 0.00 | 49 | 1020.1 |
| 20260502160125 | 60 | 108 | 0.9 | 0.9 | 0.00 | 0.00 | 0.00 | 50 | 1019.9 |
| 20260502152039 | 56 | 101 | 0.0 | 0.0 | 0.00 | 0.00 | 0.00 | 57 | 1020.2 |
| 20260502151536 | 55 | 100 | 2.6 | 2.6 | 0.00 | 0.00 | 0.00 | 58 | 1020.2 |
| 20260502151034 | 55 | 108 | 2.6 | 2.6 | 0.00 | 0.00 | 0.00 | 59 | 1020.3 |
| 20260502150531 | 55 | 104 | 1.7 | 1.7 | 0.00 | 0.00 | 0.00 | 59 | 1020.2 |
| 20260502130416 | 41 | 225 | 0.9 | 1.7 | 0.00 | 0.00 | 0.00 | 83 | 1019.6 |
| 20260502123358 | 41 | 110 | 1.7 | 1.7 | 0.00 | 0.00 | 0.00 | 80 | 1019.7 |
| 20260502122856 | 40 | 143 | 1.7 | 1.7 | 0.00 | 0.00 | 0.00 | 75 | 1019.6 |
| 20260502122351 | 38 | 108 | 1.7 | 1.7 | 0.00 | 0.00 | 0.00 | 86 | 1019.5 |
| 20260502121850 | 38 | 122 | 0.9 | 1.7 | 0.00 | 0.00 | 0.00 | 85 | 1019.7 |
| 20260502121347 | 39 | 91 | 2.6 | 2.6 | 0.00 | 0.00 | 0.00 | 87 | 1019.5 |
| 20260502120844 | 39 | 129 | 2.6 | 2.6 | 0.00 | 0.00 | 0.00 | 82 | 1019.9 |
| 20260502120340 | 38 | 107 | 2.6 | 2.6 | 0.00 | 0.00 | 0.00 | 88 | 1019.7 |
| 20260502115838 | 39 | 97 | 2.6 | 2.6 | 0.00 | 0.00 | 0.00 | 88 | 1019.7 |
| 20260502115335 | 38 | 95 | 3.5 | 4.3 | 0.00 | 0.00 | 0.00 | 88 | 1019.8 |
| 20260502114831 | 39 | 109 | 3.5 | 4.3 | 0.00 | 0.00 | 0.00 | 86 | 1019.6 |
| 20260502114328 | 43 | 86 | 3.5 | 4.3 | 0.00 | 0.00 | 0.00 | 78 | 1019.9 |
| 20260502113825 | 43 | 107 | 1.7 | 1.7 | 0.00 | 0.00 | 0.00 | 73 | 1019.9 |
| 20260502113323 | 42 | 153 | 1.7 | 1.7 | 0.00 | 0.00 | 0.00 | 73 | 1019.9 |
| 20260502112821 | 41 | 131 | 2.6 | 2.6 | 0.00 | 0.00 | 0.00 | 74 | 1019.8 |
| 20260502112318 | 42 | 91 | 0.9 | 0.9 | 0.00 | 0.00 | 0.00 | 72 | 1019.8 |
| 20260502111815 | 41 | 163 | 0.9 | 0.9 | 0.00 | 0.00 | 0.00 | 75 | 1019.9 |
| 20260502111313 | 44 | 164 | 0.9 | 1.7 | 0.00 | 0.00 | 0.00 | 64 | 1019.9 |
| 20260502110810 | 43 | 115 | 1.7 | 1.7 | 0.00 | 0.00 | 0.00 | 73 | 1019.8 |
| 20260502110308 | 42 | 137 | 0.9 | 0.9 | 0.00 | 0.00 | 0.00 | 67 | 1019.9 |
| 20260502105806 | 39 | 124 | 1.7 | 1.7 | 0.00 | 0.00 | 0.00 | 81 | 1020.3 |
| 20260502105302 | 39 | 87 | 1.7 | 1.7 | 0.00 | 0.00 | 0.00 | 86 | 1020.2 |
| 20260502104800 | 40 | 132 | 0.9 | 0.9 | 0.00 | 0.00 | 0.00 | 85 | 1020.1 |
| 20260502104257 | 41 | 95 | 2.6 | 2.6 | 0.00 | 0.00 | 0.00 | 83 | 1020.1 |
| 20260502103754 | 41 | 93 | 0.9 | 0.9 | 0.00 | 0.00 | 0.00 | 80 | 1019.9 |
| 20260502103251 | 39 | 147 | 0.9 | 0.9 | 0.00 | 0.00 | 0.00 | 84 | 1020.1 |
| 20260502102748 | 40 | 97 | 2.6 | 2.6 | 0.00 | 0.00 | 0.00 | 83 | 1020.2 |
| 20260502102245 | 42 | 78 | 1.7 | 1.7 | 0.00 | 0.00 | 0.00 | 78 | 1020.1 |
| 20260502101743 | 42 | 102 | 3.5 | 4.3 | 0.00 | 0.00 | 0.00 | 74 | 1019.9 |
| 20260502101241 | 41 | 153 | 0.9 | 1.7 | 0.00 | 0.00 | 0.00 | 75 | 1019.9 |
| 20260502100739 | 39 | 154 | 0.0 | 0.9 | 0.00 | 0.00 | 0.00 | 82 | 1020.1 |
| 20260502100237 | 39 | 148 | 0.0 | 0.9 | 0.00 | 0.00 | 0.00 | 82 | 1019.8 |
| 20260502091211 | 40 | 156 | 0.9 | 0.9 | 0.00 | 0.00 | 0.00 | 82 | 1020.1 |
| 20260502090709 | 41 | 219 | 1.7 | 1.7 | 0.00 | 0.00 | 0.00 | 79 | 1020.1 |
| 20260502090205 | 40 | 86 | 0.0 | 0.9 | 0.00 | 0.00 | 0.00 | 76 | 1020.1 |
| 20260502071107 | 47 | 143 | 0.0 | 0.9 | 0.00 | 0.00 | 0.00 | 62 | 1020.2 |
| 20260502070605 | 48 | 75 | 0.0 | 0.9 | 0.00 | 0.00 | 0.00 | 61 | 1020.1 |